Location: Newark
(41.0400°S, 62.7845°W)
Time: 03:10:53
(UTC+00:00)

Transit 2A - Pass Details

Date: 08 December 2021
Orbit: 591 x 967 km, 66.7° (Epoch: 20 January)

Event Time Altitude Azimuth Distance (km) Brightness Sun altitude
Rises 15:39:31 0° 313° (NW) 3,186 9.3 71.1°
Reaches altitude 10° 15:42:07 10° 306° (NW) 2,207 8.6 71.2°
Maximum altitude 15:46:48 41° 235° (SW) 987 7.0 71.4°
Drops below altitude 10° 15:51:09 10° 164° (SSE) 2,044 8.2 71.6°
Sets 15:53:29 0° 156° (SSE) 2,922 8.9 71.6°
